Regional Weather Roundup
Issued by NWS

Home | Current Version | Previous Version | Graphics & Text | Print | Product List | Glossary On
Versions: 1 2 3 4 5 6 7 8 9 10 11 12 13 14 15 16 17 18 19 20 21 22 23 24 25 26 27 28 29 30 31 32 33 34 35 36 37 38 39 40 41 42 43 44 45 46 47 48 49 50
000
ASUS43 KTOP 210859
RWRKS

WEATHER ROUNDUP FOR KANSAS
NATIONAL WEATHER SERVICE GOODLAND KS
400 AM CDT SUN SEP 21 2014

NOTE:  "FAIR" INDICATES FEW OR NO CLOUDS BELOW 12,000 FEET WITH NO
SIGNIFICANT WEATHER AND/OR OBSTRUCTIONS TO VISIBILITY.

KSZ001>006-013>018-027>032-041>047-211000-
NORTHWEST KANSAS

CITY           SKY/WX    TMP DP  RH WIND       PRES   REMARKS
GOODLAND       PTCLDY    53  47  79 N3        30.28S
HAYS           MOCLDY    64  46  52 NE10      30.18R
HILL CITY      PTCLDY    56  48  74 N7        30.21R
RUSSELL        MOCLDY    62  52  69 NE9       30.16R
$$

KSZ061>065-074>080-084>089-211000-
SOUTHWEST KANSAS

CITY           SKY/WX    TMP DP  RH WIND       PRES   REMARKS
DODGE CITY     PTCLDY    64  60  87 N14       30.15R
ELKHART          N/A     65  59  81 NW3         N/A
GARDEN CITY    PTCLDY    64  58  80 NE16      30.18R
GREAT BEND     PTCLDY    64  54  68 NE15      30.15R
LIBERAL        CLEAR     70  63  78 NE9       30.15S
$$

KSZ066>073-081>083-090>101-211000-
SOUTHEAST KANSAS

CITY           SKY/WX    TMP DP  RH WIND       PRES   REMARKS
CHANUTE        CLOUDY    73  70  90 CALM      30.03F
HUTCHINSON     PTCLDY    71  64  78 N14G22    30.10R
NEWTON         CLEAR     66  59  77 N16G24    30.12R
PARSONS        CLOUDY    73  71  93 NW5       30.05S
WICHITA INTL   MOCLDY    74  68  81 NE3       30.07R
WICHITA JABRA  PTCLDY    70  66  87 CALM      30.07R
WICHITA MCCONL CLOUDY    75  68  78 E2        30.07R HAZE
WINFIELD       HVY RAIN  70  70 100 N6        30.07R FOG
$$

KSZ007>012-019>026-033>040-048>060-102>105-211000-
NORTHEAST KANSAS

CITY           SKY/WX    TMP DP  RH WIND       PRES   REMARKS
CONCORDIA      CLEAR     62  52  69 N7        30.13R
EMPORIA        CLEAR     66  63  90 N10       30.09R
LAWRENCE       CLEAR     61  55  81 CALM      30.09R
MANHATTAN      CLEAR     64  55  72 CALM      30.11R
OLATHE IND     CLEAR     64  58  80 N7        30.08R
OLATHE EXE     CLEAR     66  57  72 NE6       30.07R
SALINA         CLEAR     68  54  60 NE8       30.13R
TOPEKA BILLARD CLEAR     65  59  81 CALM      30.09R
TOPEKA FORBES  CLEAR     65  57  75 CALM      30.09R
$$



USA.gov is the U.S. government's official web portal to all federal, state and local government web resources and services.